Miscellaneous Local Product
Issued by NWS North Platte, NE

Home | Current Version | Previous Version | Text Only | Print | Product List | Glossary On
Versions: 1 2 3 4 5 6 7 8 9 10 11 12 13 14 15 16 17 18 19 20 21 22 23 24 25 26 27 28 29 30 31 32 33 34 35 36 37 38 39 40 41 42 43 44 45 46 47 48 49 50
000
AXUS43 KLBF 221810
MISLBF


WESTERN AND NORTH CENTRAL NEBRASKA HOURLY WEATHER ROUNDUP
NATIONAL WEATHER SERVICE NORTH PLATTE NE
100 PM CDT FRI MAY 22 2015

***STATIONS NOT REPORTING VARIABLES SUCH AS SKY/WEATHER OR
PRESSURE ARE PROVIDED BY THE NEBRASKA DEPARTMENT OF
ROADS...RAWS...AND APRS NETWORKS...AND ARE NOT UNDER
NATIONAL WEATHER SERVICE QUALITY CONTROL***

...OBSERVATIONS IN AND NEAR THE EASTERN PANHANDLE OF NEBRASKA...

CITY           SKY/WX    TMP DP  RH WIND       PRES   REMARKS
PINE RIDGE     CLOUDY    57  40  52 SE18G25   30.10F
CHADRON        CLOUDY    57  43  59 SE14G24   30.09F
ALLIANCE       LGT RAIN  49  44  83 SE21      30.10S
SIDNEY         LGT RAIN  47  45  93 E16       30.08S
WHITECLAY        N/A     56  39  53 S20         N/A
BIG SPRINGS      N/A     49  47  93 E18         N/A
$$

...OBSERVATIONS IN NORTH CENTRAL NEBRASKA...

CITY           SKY/WX    TMP DP  RH WIND       PRES   REMARKS
VALENTINE      CLOUDY    60  41  49 S21       30.17S
THEDFORD       LGT RAIN  49  43  79 S16G22    30.21R
AINSWORTH      CLOUDY    58  42  54 S20       30.19S
O`NEILL        CLOUDY    63  43  46 S13G18    30.22S
ORD            CLOUDY    56  43  61 S14       30.22R
BROKEN BOW     LGT RAIN  50  46  86 SE10      30.23R
BROWNLEE         N/A     57  41  55 S21         N/A
VALENTINE NWR    N/A     56  41  58 S14         N/A
SPRINGVIEW       N/A     61  42  48 S12G20      N/A
HALSEY           N/A     50  42  72 S9G18       N/A
BREWSTER         N/A     53  47  82 S14         N/A
ROSE             N/A     58  46  63 E15         N/A
NEWPORT          N/A     61  40  46 S16         N/A
SARGENT          N/A     50  45  83 CALM        N/A
COMSTOCK         N/A     49  46  87 S8          N/A
EWING            N/A     63  44  49 S7G15       N/A
$$

...OBSERVATIONS IN SOUTHWEST NEBRASKA AND FAR NORTHEAST COLORADO...

CITY           SKY/WX    TMP DP  RH WIND       PRES   REMARKS
WRAY           LGT RAIN N/A N/A N/A E16       30.06F
IMPERIAL       LGT RAIN  50  47  89 SE18G24   30.10F
OGALLALA       CLOUDY    48  47  96 E20G25    30.13S FOG
NORTH PLATTE   LGT RAIN  48  45  89 E17       30.17F
MCCOOK         CLOUDY    49  47  93 SE13      30.14F FOG
LEXINGTON      LGT RAIN  47  45  91 SE14G23   30.22S
PAXTON           N/A     48  46  94 E15         N/A
GOTHENBURG       N/A     46  43  88 SE14        N/A
CALLAWAY         N/A     48  46  92 SE17        N/A
$$

...NORTH PLATTE AREA...

CITY           SKY/WX    TMP DP  RH WIND       PRES   REMARKS
AIRPORT        LGT RAIN  48  45  89 E17       30.17F
DOWNTOWN         N/A     47  44  89 E7          N/A
$$

...SOME WEATHER OBSERVATIONS FROM AROUND THE REGION...

CITY           SKY/WX    TMP DP  RH WIND       PRES   REMARKS
DENVER         CLOUDY    50  46  86 E9        30.01R
LARAMIE        CLOUDY    47  39  74 SE18      30.00S
CHEYENNE       LGT RAIN  44  42  93 SE16      30.04S FOG
SCOTTSBLUFF    LGT RAIN  49  50 100 SE16      30.07F
RAPID CITY     CLOUDY    58  45  62 S16G22    30.09F
PIERRE         PTSUNNY   72  38  29 SE18      30.13F
WINNER         FAIR      68  38  33 SE15      30.16S
SIOUX FALLS    CLOUDY    73  41  31 NE5       30.20S
OMAHA          CLOUDY    68  44  42 SE5       30.23S
GRAND ISLAND   CLOUDY    54  44  69 SE9       30.24F
KANSAS CITY    CLOUDY    61  49  64 S10       30.27F
WICHITA        LGT RAIN  56  54  93 S14       30.20F FOG
HAYS           CLOUDY    54  43  66 SE16      30.16F
LIBERAL        CLOUDY    55  50  82 S14       30.12F
GOODLAND       LGT RAIN  49  48  97 SE22G31   30.07S FOG
$$



USA.gov is the U.S. government's official web portal to all federal, state and local government web resources and services.